owner,sensor,date,latitude,longitude,air_pressure(mBar),qcFlag 
TABS,ioos:station:wmo:42047:1,2013-10-01T00:00:00Z,27.8966,-93.5973,1011.88,11111222 
TABS,ioos:station:wmo:42047:1,2013-10-01T00:30:00Z,27.8966,-93.5973,1011.82,11111222 
TABS,ioos:station:wmo:42047:1,2013-10-01T01:00:00Z,27.8966,-93.5973,1011.87,11111222 
TABS,ioos:station:wmo:42047:1,2013-10-01T01:30:00Z,27.8966,-93.5973,1011.99,11111222 
TABS,ioos:station:wmo:42047:1,2013-10-01T02:00:00Z,27.8966,-93.5973,1012.17,11111222 
TABS,ioos:station:wmo:42047:1,2013-10-01T02:30:00Z,27.8966,-93.5973,1012.24,11111222 
TABS,ioos:station:wmo:42047:1,2013-10-01T03:00:00Z,27.8966,-93.5973,1012.4,11111222 
TABS,ioos:station:wmo:42047:1,2013-10-01T03:30:00Z,27.8966,-93.5973,1012.54,11111222 
TABS,ioos:station:wmo:42047:1,2013-10-01T04:00:00Z,27.8966,-93.5973,1012.49,11111222 
TABS,ioos:station:wmo:42047:1,2013-10-01T04:30:00Z,27.8966,-93.5973,1012.28,11111222 
TABS,ioos:station:wmo:42047:1,2013-10-01T05:00:00Z,27.8966,-93.5973,1012.2,11111222 
TABS,ioos:station:wmo:42047:1,2013-10-01T05:30:00Z,27.8966,-93.5973,1012.21,11111222 
TABS,ioos:station:wmo:42047:1,2013-10-01T06:00:00Z,27.8966,-93.5973,1012.15,11111222 
TABS,ioos:station:wmo:42047:1,2013-10-01T06:30:00Z,27.8966,-93.5973,1012.29,11111222 
TABS,ioos:station:wmo:42047:1,2013-10-01T07:00:00Z,27.8966,-93.5973,1012.31,11111222 
TABS,ioos:station:wmo:42047:1,2013-10-01T07:30:00Z,27.8966,-93.5973,1012.4,11111222 
TABS,ioos:station:wmo:42047:1,2013-10-01T08:00:00Z,27.8966,-93.5973,1011.92,11111222 
TABS,ioos:station:wmo:42047:1,2013-10-01T08:30:00Z,27.8966,-93.5973,1011.85,11111222 
TABS,ioos:station:wmo:42047:1,2013-10-01T09:00:00Z,27.8966,-93.5973,1011.75,11111222 
TABS,ioos:station:wmo:42047:1,2013-10-01T09:30:00Z,27.8966,-93.5973,1011.77,11111222 
TABS,ioos:station:wmo:42047:1,2013-10-01T10:00:00Z,27.8966,-93.5973,1011.75,11111222 
TABS,ioos:station:wmo:42047:1,2013-10-01T10:30:00Z,27.8966,-93.5973,1011.96,11111222 
TABS,ioos:station:wmo:42047:1,2013-10-01T11:00:00Z,27.8966,-93.5973,1012.18,11111222 
TABS,ioos:station:wmo:42047:1,2013-10-01T11:30:00Z,27.8966,-93.5973,1012.6,11111222 
TABS,ioos:station:wmo:42047:1,2013-10-01T12:00:00Z,27.8966,-93.5973,1013.04,11111222 
TABS,ioos:station:wmo:42047:1,2013-10-01T12:30:00Z,27.8966,-93.5973,1013.08,11111222 
TABS,ioos:station:wmo:42047:1,2013-10-01T13:00:00Z,27.8966,-93.5973,1013.28,11111222 
TABS,ioos:station:wmo:42047:1,2013-10-01T13:30:00Z,27.8966,-93.5973,1013.23,11111222 
TABS,ioos:station:wmo:42047:1,2013-10-01T14:00:00Z,27.8966,-93.5973,1013.73,11111222 
TABS,ioos:station:wmo:42047:1,2013-10-01T14:30:00Z,27.8966,-93.5973,1014.38,11111222 
TABS,ioos:station:wmo:42047:1,2013-10-01T15:00:00Z,27.8966,-93.5973,1014.26,11111222 
TABS,ioos:station:wmo:42047:1,2013-10-01T15:30:00Z,27.8966,-93.5973,1014.31,11111222 
TABS,ioos:station:wmo:42047:1,2013-10-01T16:00:00Z,27.8966,-93.5973,1014.51,11111222 
TABS,ioos:station:wmo:42047:1,2013-10-01T16:30:00Z,27.8966,-93.5973,1014.81,11111222 
TABS,ioos:station:wmo:42047:1,2013-10-01T17:00:00Z,27.8966,-93.5973,1014.87,11111222 
TABS,ioos:station:wmo:42047:1,2013-10-01T17:30:00Z,27.8966,-93.5973,1014.47,11111222 
TABS,ioos:station:wmo:42047:1,2013-10-01T18:00:00Z,27.8966,-93.5973,1014.76,11111222 
TABS,ioos:station:wmo:42047:1,2013-10-01T18:30:00Z,27.8966,-93.5973,1013.86,11111222 
TABS,ioos:station:wmo:42047:1,2013-10-01T19:00:00Z,27.8966,-93.5973,1013.39,11111222 
TABS,ioos:station:wmo:42047:1,2013-10-01T19:30:00Z,27.8966,-93.5973,1013.07,11111222 
TABS,ioos:station:wmo:42047:1,2013-10-01T20:00:00Z,27.8966,-93.5973,1013.52,11111222 
TABS,ioos:station:wmo:42047:1,2013-10-01T20:30:00Z,27.8966,-93.5973,1012.91,11111222 
TABS,ioos:station:wmo:42047:1,2013-10-01T21:00:00Z,27.8966,-93.5973,1012.47,11111222 
TABS,ioos:station:wmo:42047:1,2013-10-01T21:30:00Z,27.8966,-93.5973,1013.22,11111222 
TABS,ioos:station:wmo:42047:1,2013-10-01T22:00:00Z,27.8966,-93.5973,1012.52,11111222 
TABS,ioos:station:wmo:42047:1,2013-10-01T22:30:00Z,27.8966,-93.5973,1012.78,11111222 
TABS,ioos:station:wmo:42047:1,2013-10-01T23:00:00Z,27.8966,-93.5973,1012.78,11111222 
TABS,ioos:station:wmo:42047:1,2013-10-01T23:30:00Z,27.8966,-93.5973,1013.05,11111222 
TABS,ioos:station:wmo:42047:1,2013-10-02T00:00:00Z,27.8966,-93.5973,1013.2,11111222 
TABS,ioos:station:wmo:42047:1,2013-10-02T00:30:00Z,27.8966,-93.5973,1013.36,11111222 
TABS,ioos:station:wmo:42047:1,2013-10-02T01:00:00Z,27.8966,-93.5973,1013.56,11111222 
TABS,ioos:station:wmo:42047:1,2013-10-02T01:30:00Z,27.8966,-93.5973,1013.67,11111222 
TABS,ioos:station:wmo:42047:1,2013-10-02T02:00:00Z,27.8966,-93.5973,1013.81,11111222 
TABS,ioos:station:wmo:42047:1,2013-10-02T02:30:00Z,27.8966,-93.5973,1014.22,11111222 
TABS,ioos:station:wmo:42047:1,2013-10-02T03:00:00Z,27.8966,-93.5973,1014.2,11111222 
TABS,ioos:station:wmo:42047:1,2013-10-02T03:30:00Z,27.8966,-93.5973,1014.16,11111222 
TABS,ioos:station:wmo:42047:1,2013-10-02T04:00:00Z,27.8966,-93.5973,1014.54,11111222 
TABS,ioos:station:wmo:42047:1,2013-10-02T04:30:00Z,27.8966,-93.5973,1014.3,11111222 
TABS,ioos:station:wmo:42047:1,2013-10-02T05:00:00Z,27.8966,-93.5973,1014.4,11111222 
TABS,ioos:station:wmo:42047:1,2013-10-02T05:30:00Z,27.8966,-93.5973,1014.29,11111222 
TABS,ioos:station:wmo:42047:1,2013-10-02T06:00:00Z,27.8966,-93.5973,1014.38,11111222 
TABS,ioos:station:wmo:42047:1,2013-10-02T06:30:00Z,27.8966,-93.5973,1014.12,11111222 
TABS,ioos:station:wmo:42047:1,2013-10-02T07:00:00Z,27.8966,-93.5973,1013.87,11111222 
TABS,ioos:station:wmo:42047:1,2013-10-02T07:30:00Z,27.8966,-93.5973,1013.82,11111222 
TABS,ioos:station:wmo:42047:1,2013-10-02T08:00:00Z,27.8966,-93.5973,1013.41,11111222 
TABS,ioos:station:wmo:42047:1,2013-10-02T08:30:00Z,27.8966,-93.5973,1013.11,11111222 
TABS,ioos:station:wmo:42047:1,2013-10-02T09:00:00Z,27.8966,-93.5973,1013.19,11111222 
TABS,ioos:station:wmo:42047:1,2013-10-02T09:30:00Z,27.8966,-93.5973,1013.26,11111222 
TABS,ioos:station:wmo:42047:1,2013-10-02T10:00:00Z,27.8966,-93.5973,1013.34,11111222 
TABS,ioos:station:wmo:42047:1,2013-10-02T10:30:00Z,27.8966,-93.5973,1013.38,11111222 
TABS,ioos:station:wmo:42047:1,2013-10-02T11:00:00Z,27.8966,-93.5973,1013.44,11111222 
TABS,ioos:station:wmo:42047:1,2013-10-02T11:30:00Z,27.8966,-93.5973,1013.61,11111222 
TABS,ioos:station:wmo:42047:1,2013-10-02T12:00:00Z,27.8966,-93.5973,1013.88,11111222 
TABS,ioos:station:wmo:42047:1,2013-10-02T12:30:00Z,27.8966,-93.5973,1013.95,11111222 
TABS,ioos:station:wmo:42047:1,2013-10-02T13:00:00Z,27.8966,-93.5973,1014.14,11111222 
TABS,ioos:station:wmo:42047:1,2013-10-02T13:30:00Z,27.8966,-93.5973,1014.21,11111222 
TABS,ioos:station:wmo:42047:1,2013-10-02T14:00:00Z,27.8966,-93.5973,1014.62,11111222 
TABS,ioos:station:wmo:42047:1,2013-10-02T14:30:00Z,27.8966,-93.5973,1015.09,11111222 
TABS,ioos:station:wmo:42047:1,2013-10-02T15:00:00Z,27.8966,-93.5973,1015.47,11111222 
TABS,ioos:station:wmo:42047:1,2013-10-02T15:30:00Z,27.8966,-93.5973,1015.55,11111222 
TABS,ioos:station:wmo:42047:1,2013-10-02T16:00:00Z,27.8966,-93.5973,1015.63,11111222 
TABS,ioos:station:wmo:42047:1,2013-10-02T16:30:00Z,27.8966,-93.5973,1015.59,11111222 
TABS,ioos:station:wmo:42047:1,2013-10-02T17:00:00Z,27.8966,-93.5973,1015.08,11111222 
TABS,ioos:station:wmo:42047:1,2013-10-02T17:30:00Z,27.8966,-93.5973,1014.51,11111222 
TABS,ioos:station:wmo:42047:1,2013-10-02T18:00:00Z,27.8966,-93.5973,1014.05,11111222 
TABS,ioos:station:wmo:42047:1,2013-10-02T18:30:00Z,27.8966,-93.5973,1013.6,11111222 
TABS,ioos:station:wmo:42047:1,2013-10-02T19:00:00Z,27.8966,-93.5973,1013.36,11111222 
TABS,ioos:station:wmo:42047:1,2013-10-02T19:30:00Z,27.8966,-93.5973,1013.17,11111222 
TABS,ioos:station:wmo:42047:1,2013-10-02T20:00:00Z,27.8966,-93.5973,1013.31,11111222 
TABS,ioos:station:wmo:42047:1,2013-10-02T20:30:00Z,27.8966,-93.5973,1013.39,11111222 
TABS,ioos:station:wmo:42047:1,2013-10-02T21:00:00Z,27.8966,-93.5973,1013.29,11111222 
TABS,ioos:station:wmo:42047:1,2013-10-02T21:30:00Z,27.8966,-93.5973,1013.11,11111222 
TABS,ioos:station:wmo:42047:1,2013-10-02T22:00:00Z,27.8966,-93.5973,1012.99,11111222 
TABS,ioos:station:wmo:42047:1,2013-10-02T22:30:00Z,27.8966,-93.5973,1012.99,11111222 
TABS,ioos:station:wmo:42047:1,2013-10-02T23:00:00Z,27.8966,-93.5973,1013.09,11111222 
TABS,ioos:station:wmo:42047:1,2013-10-02T23:30:00Z,27.8966,-93.5973,1013.02,11111222 
TABS,ioos:station:wmo:42047:1,2013-10-03T00:00:00Z,27.8966,-93.5973,1013.1,11111222 
TABS,ioos:station:wmo:42047:1,2013-10-03T00:30:00Z,27.8966,-93.5973,1013.29,11111222 
TABS,ioos:station:wmo:42047:1,2013-10-03T01:00:00Z,27.8966,-93.5973,1013.41,11111222 
TABS,ioos:station:wmo:42047:1,2013-10-03T01:30:00Z,27.8966,-93.5973,1013.6,11111222 
TABS,ioos:station:wmo:42047:1,2013-10-03T02:00:00Z,27.8966,-93.5973,1013.96,11111222 
TABS,ioos:station:wmo:42047:1,2013-10-03T02:30:00Z,27.8966,-93.5973,1014.15,11111222 
TABS,ioos:station:wmo:42047:1,2013-10-03T03:00:00Z,27.8966,-93.5973,1014.25,11111222 
TABS,ioos:station:wmo:42047:1,2013-10-03T03:30:00Z,27.8966,-93.5973,1014.27,11111222 
TABS,ioos:station:wmo:42047:1,2013-10-03T04:00:00Z,27.8966,-93.5973,1014.35,11111222 
TABS,ioos:station:wmo:42047:1,2013-10-03T04:30:00Z,27.8966,-93.5973,1014.19,11111222 
TABS,ioos:station:wmo:42047:1,2013-10-03T05:00:00Z,27.8966,-93.5973,1013.87,11111222 
TABS,ioos:station:wmo:42047:1,2013-10-03T05:30:00Z,27.8966,-93.5973,1013.81,11111222 
TABS,ioos:station:wmo:42047:1,2013-10-03T06:00:00Z,27.8966,-93.5973,1013.69,11111222 
TABS,ioos:station:wmo:42047:1,2013-10-03T06:30:00Z,27.8966,-93.5973,1013.66,11111222 
TABS,ioos:station:wmo:42047:1,2013-10-03T07:00:00Z,27.8966,-93.5973,1013.4,11111222 
TABS,ioos:station:wmo:42047:1,2013-10-03T07:30:00Z,27.8966,-93.5973,1013.19,11111222 
TABS,ioos:station:wmo:42047:1,2013-10-03T08:00:00Z,27.8966,-93.5973,1012.88,11111222 
TABS,ioos:station:wmo:42047:1,2013-10-03T08:30:00Z,27.8966,-93.5973,1012.61,11111222 
TABS,ioos:station:wmo:42047:1,2013-10-03T09:00:00Z,27.8966,-93.5973,1012.61,11111222 
TABS,ioos:station:wmo:42047:1,2013-10-03T09:30:00Z,27.8966,-93.5973,1012.59,11111222 
TABS,ioos:station:wmo:42047:1,2013-10-03T10:00:00Z,27.8966,-93.5973,1012.62,11111222 
TABS,ioos:station:wmo:42047:1,2013-10-03T10:30:00Z,27.8966,-93.5973,1012.76,11111222 
TABS,ioos:station:wmo:42047:1,2013-10-03T11:00:00Z,27.8966,-93.5973,1012.79,11111222 
TABS,ioos:station:wmo:42047:1,2013-10-03T11:30:00Z,27.8966,-93.5973,1012.95,11111222 
TABS,ioos:station:wmo:42047:1,2013-10-03T12:00:00Z,27.8966,-93.5973,1013.31,11111222 
TABS,ioos:station:wmo:42047:1,2013-10-03T12:30:00Z,27.8966,-93.5973,1013.4,11111222 
TABS,ioos:station:wmo:42047:1,2013-10-03T13:00:00Z,27.8966,-93.5973,1013.76,11111222 
TABS,ioos:station:wmo:42047:1,2013-10-03T13:30:00Z,27.8966,-93.5973,1014.14,11111222 
TABS,ioos:station:wmo:42047:1,2013-10-03T14:00:00Z,27.8966,-93.5973,1014.42,11111222 
TABS,ioos:station:wmo:42047:1,2013-10-03T14:30:00Z,27.8966,-93.5973,1014.79,11111222 
TABS,ioos:station:wmo:42047:1,2013-10-03T15:00:00Z,27.8966,-93.5973,1014.99,11111222 
TABS,ioos:station:wmo:42047:1,2013-10-03T15:30:00Z,27.8966,-93.5973,1015.11,11111222 
TABS,ioos:station:wmo:42047:1,2013-10-03T16:00:00Z,27.8966,-93.5973,1015.05,11111222 
TABS,ioos:station:wmo:42047:1,2013-10-03T16:30:00Z,27.8966,-93.5973,1014.93,11111222 
TABS,ioos:station:wmo:42047:1,2013-10-03T17:00:00Z,27.8966,-93.5973,1014.79,11111222 
TABS,ioos:station:wmo:42047:1,2013-10-03T17:30:00Z,27.8966,-93.5973,1014.58,11111222 
TABS,ioos:station:wmo:42047:1,2013-10-03T18:00:00Z,27.8966,-93.5973,1014.18,11111222 
TABS,ioos:station:wmo:42047:1,2013-10-03T18:30:00Z,27.8966,-93.5973,1013.76,11111222 
TABS,ioos:station:wmo:42047:1,2013-10-03T19:00:00Z,27.8966,-93.5973,1013.41,11111222 
TABS,ioos:station:wmo:42047:1,2013-10-03T19:30:00Z,27.8966,-93.5973,1013.2,11111222 
TABS,ioos:station:wmo:42047:1,2013-10-03T20:00:00Z,27.8966,-93.5973,1013.06,11111222 
TABS,ioos:station:wmo:42047:1,2013-10-03T20:30:00Z,27.8966,-93.5973,1012.89,11111222 
TABS,ioos:station:wmo:42047:1,2013-10-03T21:00:00Z,27.8966,-93.5973,1012.67,11111222 
TABS,ioos:station:wmo:42047:1,2013-10-03T21:30:00Z,27.8966,-93.5973,1012.57,11111222 
TABS,ioos:station:wmo:42047:1,2013-10-03T22:00:00Z,27.8966,-93.5973,1012.42,11111222 
TABS,ioos:station:wmo:42047:1,2013-10-03T22:30:00Z,27.8966,-93.5973,1012.48,11111222 
TABS,ioos:station:wmo:42047:1,2013-10-03T23:00:00Z,27.8966,-93.5973,1012.33,11111222 
TABS,ioos:station:wmo:42047:1,2013-10-03T23:30:00Z,27.8966,-93.5973,1012.39,11111222 
TABS,ioos:station:wmo:42047:1,2013-10-04T00:00:00Z,27.8966,-93.5973,1012.52,11111222 
TABS,ioos:station:wmo:42047:1,2013-10-04T00:30:00Z,27.8966,-93.5973,1012.53,11111222 
TABS,ioos:station:wmo:42047:1,2013-10-04T01:00:00Z,27.8966,-93.5973,1012.76,11111222 
TABS,ioos:station:wmo:42047:1,2013-10-04T01:30:00Z,27.8966,-93.5973,1012.9,11111222 
TABS,ioos:station:wmo:42047:1,2013-10-04T02:00:00Z,27.8966,-93.5973,1013.25,11111222 
TABS,ioos:station:wmo:42047:1,2013-10-04T02:30:00Z,27.8966,-93.5973,1013.4,11111222 
TABS,ioos:station:wmo:42047:1,2013-10-04T03:00:00Z,27.8966,-93.5973,1013.5,11111222 
TABS,ioos:station:wmo:42047:1,2013-10-04T03:30:00Z,27.8966,-93.5973,1013.56,11111222 
TABS,ioos:station:wmo:42047:1,2013-10-04T04:00:00Z,27.8966,-93.5973,1013.47,11111222 
TABS,ioos:station:wmo:42047:1,2013-10-04T04:30:00Z,27.8966,-93.5973,1013.35,11111222 
TABS,ioos:station:wmo:42047:1,2013-10-04T05:00:00Z,27.8966,-93.5973,1013.1,11111222 
TABS,ioos:station:wmo:42047:1,2013-10-04T05:30:00Z,27.8966,-93.5973,1013.0,11111222 
TABS,ioos:station:wmo:42047:1,2013-10-04T06:00:00Z,27.8966,-93.5973,1012.9,11111222 
TABS,ioos:station:wmo:42047:1,2013-10-04T06:30:00Z,27.8966,-93.5973,1012.85,11111222 
TABS,ioos:station:wmo:42047:1,2013-10-04T07:00:00Z,27.8966,-93.5973,1012.75,11111222 
TABS,ioos:station:wmo:42047:1,2013-10-04T07:30:00Z,27.8966,-93.5973,1012.38,11111222 
TABS,ioos:station:wmo:42047:1,2013-10-04T08:00:00Z,27.8966,-93.5973,1012.15,11111222 
TABS,ioos:station:wmo:42047:1,2013-10-04T08:30:00Z,27.8966,-93.5973,1012.01,11111222 
TABS,ioos:station:wmo:42047:1,2013-10-04T09:00:00Z,27.8966,-93.5973,1011.93,11111222 
TABS,ioos:station:wmo:42047:1,2013-10-04T09:30:00Z,27.8966,-93.5973,1011.9,11111222 
TABS,ioos:station:wmo:42047:1,2013-10-04T10:00:00Z,27.8966,-93.5973,1012.12,11111222 
TABS,ioos:station:wmo:42047:1,2013-10-04T10:30:00Z,27.8966,-93.5973,1012.11,11111222 
TABS,ioos:station:wmo:42047:1,2013-10-04T11:00:00Z,27.8966,-93.5973,1012.4,11111222 
TABS,ioos:station:wmo:42047:1,2013-10-04T11:30:00Z,27.8966,-93.5973,1012.66,11111222 
TABS,ioos:station:wmo:42047:1,2013-10-04T12:00:00Z,27.8966,-93.5973,1012.79,11111222 
TABS,ioos:station:wmo:42047:1,2013-10-04T12:30:00Z,27.8966,-93.5973,1012.99,11111222 
TABS,ioos:station:wmo:42047:1,2013-10-04T13:00:00Z,27.8966,-93.5973,1013.27,11111222 
TABS,ioos:station:wmo:42047:1,2013-10-04T13:30:00Z,27.8966,-93.5973,1013.57,11111222 
TABS,ioos:station:wmo:42047:1,2013-10-04T14:00:00Z,27.8966,-93.5973,1013.94,11111222 
TABS,ioos:station:wmo:42047:1,2013-10-04T14:30:00Z,27.8966,-93.5973,1013.99,11111222 
TABS,ioos:station:wmo:42047:1,2013-10-04T15:00:00Z,27.8966,-93.5973,1014.05,11111222 
TABS,ioos:station:wmo:42047:1,2013-10-04T15:30:00Z,27.8966,-93.5973,1014.23,11111222 
TABS,ioos:station:wmo:42047:1,2013-10-04T16:00:00Z,27.8966,-93.5973,1014.24,11111222 
TABS,ioos:station:wmo:42047:1,2013-10-04T16:30:00Z,27.8966,-93.5973,1014.31,11111222 
TABS,ioos:station:wmo:42047:1,2013-10-04T17:00:00Z,27.8966,-93.5973,1013.89,11111222 
TABS,ioos:station:wmo:42047:1,2013-10-04T17:30:00Z,27.8966,-93.5973,1013.77,11111222 
TABS,ioos:station:wmo:42047:1,2013-10-04T18:00:00Z,27.8966,-93.5973,1013.38,11111222 
TABS,ioos:station:wmo:42047:1,2013-10-04T18:30:00Z,27.8966,-93.5973,1013.33,11111222 
TABS,ioos:station:wmo:42047:1,2013-10-04T19:00:00Z,27.8966,-93.5973,1012.9,11111222 
TABS,ioos:station:wmo:42047:1,2013-10-04T19:30:00Z,27.8966,-93.5973,1012.87,11111222 
TABS,ioos:station:wmo:42047:1,2013-10-04T20:00:00Z,27.8966,-93.5973,1012.82,11111222 
TABS,ioos:station:wmo:42047:1,2013-10-04T20:30:00Z,27.8966,-93.5973,1012.78,11111222 
TABS,ioos:station:wmo:42047:1,2013-10-04T21:00:00Z,27.8966,-93.5973,1012.36,11111222 
TABS,ioos:station:wmo:42047:1,2013-10-04T21:30:00Z,27.8966,-93.5973,1012.55,11111222 
TABS,ioos:station:wmo:42047:1,2013-10-04T22:00:00Z,27.8966,-93.5973,1012.51,11111222 
TABS,ioos:station:wmo:42047:1,2013-10-04T22:30:00Z,27.8966,-93.5973,1012.46,11111222 
TABS,ioos:station:wmo:42047:1,2013-10-04T23:00:00Z,27.8966,-93.5973,1012.38,11111222 
TABS,ioos:station:wmo:42047:1,2013-10-04T23:30:00Z,27.8966,-93.5973,1012.48,11111222 
TABS,ioos:station:wmo:42047:1,2013-10-05T00:00:00Z,27.8966,-93.5973,1012.69,11111222 
TABS,ioos:station:wmo:42047:1,2013-10-05T00:30:00Z,27.8966,-93.5973,1012.63,11111222 
TABS,ioos:station:wmo:42047:1,2013-10-05T01:00:00Z,27.8966,-93.5973,1013.0,11111222 
TABS,ioos:station:wmo:42047:1,2013-10-05T01:30:00Z,27.8966,-93.5973,1013.1,11111222 
TABS,ioos:station:wmo:42047:1,2013-10-05T02:00:00Z,27.8966,-93.5973,1013.19,11111222 
TABS,ioos:station:wmo:42047:1,2013-10-05T02:30:00Z,27.8966,-93.5973,1013.44,11111222 
TABS,ioos:station:wmo:42047:1,2013-10-05T03:00:00Z,27.8966,-93.5973,1013.43,11111222 
TABS,ioos:station:wmo:42047:1,2013-10-05T03:30:00Z,27.8966,-93.5973,1013.1,11111222 
TABS,ioos:station:wmo:42047:1,2013-10-05T04:00:00Z,27.8966,-93.5973,1012.94,11111222 
TABS,ioos:station:wmo:42047:1,2013-10-05T04:30:00Z,27.8966,-93.5973,1012.49,11111222 
TABS,ioos:station:wmo:42047:1,2013-10-05T05:00:00Z,27.8966,-93.5973,1012.37,11111222 
TABS,ioos:station:wmo:42047:1,2013-10-05T05:30:00Z,27.8966,-93.5973,1012.23,11111222 
TABS,ioos:station:wmo:42047:1,2013-10-05T06:00:00Z,27.8966,-93.5973,1011.97,11111222 
TABS,ioos:station:wmo:42047:1,2013-10-05T06:30:00Z,27.8966,-93.5973,1011.83,11111222 
TABS,ioos:station:wmo:42047:1,2013-10-05T07:00:00Z,27.8966,-93.5973,1011.78,11111222 
TABS,ioos:station:wmo:42047:1,2013-10-05T07:30:00Z,27.8966,-93.5973,1011.54,11111222 
TABS,ioos:station:wmo:42047:1,2013-10-05T08:00:00Z,27.8966,-93.5973,1011.3,11111222 
TABS,ioos:station:wmo:42047:1,2013-10-05T08:30:00Z,27.8966,-93.5973,1011.28,11111222 
TABS,ioos:station:wmo:42047:1,2013-10-05T09:00:00Z,27.8966,-93.5973,1011.28,11111222 
TABS,ioos:station:wmo:42047:1,2013-10-05T09:30:00Z,27.8966,-93.5973,1011.36,11111222 
TABS,ioos:station:wmo:42047:1,2013-10-05T10:00:00Z,27.8966,-93.5973,1011.45,11111222 
TABS,ioos:station:wmo:42047:1,2013-10-05T10:30:00Z,27.8966,-93.5973,1011.96,11111222 
TABS,ioos:station:wmo:42047:1,2013-10-05T11:00:00Z,27.8966,-93.5973,1011.77,11111222 
TABS,ioos:station:wmo:42047:1,2013-10-05T11:30:00Z,27.8966,-93.5973,1011.91,11111222 
TABS,ioos:station:wmo:42047:1,2013-10-05T12:00:00Z,27.8966,-93.5973,1011.99,11111222 
TABS,ioos:station:wmo:42047:1,2013-10-05T12:30:00Z,27.8966,-93.5973,1011.9,11111222 
TABS,ioos:station:wmo:42047:1,2013-10-05T13:00:00Z,27.8966,-93.5973,1012.07,11111222 
TABS,ioos:station:wmo:42047:1,2013-10-05T13:30:00Z,27.8966,-93.5973,1012.4,11111222 
TABS,ioos:station:wmo:42047:1,2013-10-05T14:00:00Z,27.8966,-93.5973,1012.5,11111222 
TABS,ioos:station:wmo:42047:1,2013-10-05T14:30:00Z,27.8966,-93.5973,1012.93,11111222 
TABS,ioos:station:wmo:42047:1,2013-10-05T15:00:00Z,27.8966,-93.5973,1012.57,11111222 
TABS,ioos:station:wmo:42047:1,2013-10-05T15:30:00Z,27.8966,-93.5973,1012.54,11111222 
TABS,ioos:station:wmo:42047:1,2013-10-05T16:00:00Z,27.8966,-93.5973,1012.93,11111222 
TABS,ioos:station:wmo:42047:1,2013-10-05T16:30:00Z,27.8966,-93.5973,1012.64,11111222 
TABS,ioos:station:wmo:42047:1,2013-10-05T17:00:00Z,27.8966,-93.5973,1012.54,11111222 
TABS,ioos:station:wmo:42047:1,2013-10-05T17:30:00Z,27.8966,-93.5973,1012.57,11111222 
TABS,ioos:station:wmo:42047:1,2013-10-05T18:00:00Z,27.8966,-93.5973,1012.45,11111222 
TABS,ioos:station:wmo:42047:1,2013-10-05T18:30:00Z,27.8966,-93.5973,1012.06,11111222 
TABS,ioos:station:wmo:42047:1,2013-10-05T19:00:00Z,27.8966,-93.5973,1011.5,11111222 
TABS,ioos:station:wmo:42047:1,2013-10-05T19:30:00Z,27.8966,-93.5973,1010.77,11111222 
TABS,ioos:station:wmo:42047:1,2013-10-05T20:00:00Z,27.8966,-93.5973,1010.71,11111222 
TABS,ioos:station:wmo:42047:1,2013-10-05T20:30:00Z,27.8966,-93.5973,1010.47,11111222 
TABS,ioos:station:wmo:42047:1,2013-10-05T21:00:00Z,27.8966,-93.5973,1010.74,11111222 
TABS,ioos:station:wmo:42047:1,2013-10-05T21:30:00Z,27.8966,-93.5973,1010.62,11111222 
TABS,ioos:station:wmo:42047:1,2013-10-06T00:00:00Z,27.8966,-93.5973,1011.02,11111222 
TABS,ioos:station:wmo:42047:1,2013-10-06T00:30:00Z,27.8966,-93.5973,1010.88,11111222 
TABS,ioos:station:wmo:42047:1,2013-10-06T01:00:00Z,27.8966,-93.5973,1011.18,11111222 
TABS,ioos:station:wmo:42047:1,2013-10-06T01:30:00Z,27.8966,-93.5973,1011.07,11111222 
TABS,ioos:station:wmo:42047:1,2013-10-06T02:00:00Z,27.8966,-93.5973,1011.57,11111222 
TABS,ioos:station:wmo:42047:1,2013-10-06T02:30:00Z,27.8966,-93.5973,1012.07,11111222 
TABS,ioos:station:wmo:42047:1,2013-10-06T03:00:00Z,27.8966,-93.5973,1012.22,11111222 
TABS,ioos:station:wmo:42047:1,2013-10-06T03:30:00Z,27.8966,-93.5973,1012.21,11111222 
TABS,ioos:station:wmo:42047:1,2013-10-06T04:00:00Z,27.8966,-93.5973,1012.02,11111222 
TABS,ioos:station:wmo:42047:1,2013-10-06T04:30:00Z,27.8966,-93.5973,1012.21,11111222 
TABS,ioos:station:wmo:42047:1,2013-10-06T05:00:00Z,27.8966,-93.5973,1011.77,11111222 
TABS,ioos:station:wmo:42047:1,2013-10-06T05:30:00Z,27.8966,-93.5973,1011.97,11111222 
TABS,ioos:station:wmo:42047:1,2013-10-06T06:00:00Z,27.8966,-93.5973,1012.04,11111222 
TABS,ioos:station:wmo:42047:1,2013-10-06T06:30:00Z,27.8966,-93.5973,1011.86,11111222 
TABS,ioos:station:wmo:42047:1,2013-10-06T07:00:00Z,27.8966,-93.5973,1012.05,11111222 
TABS,ioos:station:wmo:42047:1,2013-10-06T07:30:00Z,27.8966,-93.5973,1011.34,11111222 
TABS,ioos:station:wmo:42047:1,2013-10-06T08:00:00Z,27.8966,-93.5973,1011.23,11111222 
TABS,ioos:station:wmo:42047:1,2013-10-06T08:30:00Z,27.8966,-93.5973,1011.18,11111222 
TABS,ioos:station:wmo:42047:1,2013-10-06T09:00:00Z,27.8966,-93.5973,1011.45,11111222 
TABS,ioos:station:wmo:42047:1,2013-10-06T09:30:00Z,27.8966,-93.5973,1011.19,11111222 
TABS,ioos:station:wmo:42047:1,2013-10-06T10:00:00Z,27.8966,-93.5973,1011.28,11111222 
TABS,ioos:station:wmo:42047:1,2013-10-06T10:30:00Z,27.8966,-93.5973,1011.69,11111222 
TABS,ioos:station:wmo:42047:1,2013-10-06T11:00:00Z,27.8966,-93.5973,1011.7,11111222 
TABS,ioos:station:wmo:42047:1,2013-10-06T11:30:00Z,27.8966,-93.5973,1011.94,11111222 
TABS,ioos:station:wmo:42047:1,2013-10-06T12:00:00Z,27.8966,-93.5973,1012.29,11111222 
TABS,ioos:station:wmo:42047:1,2013-10-06T12:30:00Z,27.8966,-93.5973,1012.42,11111222 
TABS,ioos:station:wmo:42047:1,2013-10-06T13:00:00Z,27.8966,-93.5973,1012.7,11111222 
TABS,ioos:station:wmo:42047:1,2013-10-06T13:30:00Z,27.8966,-93.5973,1013.05,11111222 
TABS,ioos:station:wmo:42047:1,2013-10-06T14:00:00Z,27.8966,-93.5973,1013.36,11111222 
TABS,ioos:station:wmo:42047:1,2013-10-06T14:30:00Z,27.8966,-93.5973,1013.91,11111222 
TABS,ioos:station:wmo:42047:1,2013-10-06T15:00:00Z,27.8966,-93.5973,1014.22,11111222 
TABS,ioos:station:wmo:42047:1,2013-10-06T15:30:00Z,27.8966,-93.5973,1014.26,11111222 
TABS,ioos:station:wmo:42047:1,2013-10-06T16:00:00Z,27.8966,-93.5973,1014.61,11111222 
TABS,ioos:station:wmo:42047:1,2013-10-06T16:30:00Z,27.8966,-93.5973,1014.56,11111222 
TABS,ioos:station:wmo:42047:1,2013-10-06T17:00:00Z,27.8966,-93.5973,1014.88,11111222 
TABS,ioos:station:wmo:42047:1,2013-10-06T17:30:00Z,27.8966,-93.5973,1014.69,11111222 
TABS,ioos:station:wmo:42047:1,2013-10-06T18:00:00Z,27.8966,-93.5973,1014.39,11111222 
TABS,ioos:station:wmo:42047:1,2013-10-06T18:30:00Z,27.8966,-93.5973,1013.96,11111222 
TABS,ioos:station:wmo:42047:1,2013-10-06T19:00:00Z,27.8966,-93.5973,1013.73,11111222 
TABS,ioos:station:wmo:42047:1,2013-10-06T19:30:00Z,27.8966,-93.5973,1013.17,11111222 
TABS,ioos:station:wmo:42047:1,2013-10-06T20:00:00Z,27.8966,-93.5973,1012.59,11111222 
TABS,ioos:station:wmo:42047:1,2013-10-06T20:30:00Z,27.8966,-93.5973,1013.03,11111222 